星链-35421(STARLINK-35421)

导读 | 豆包AI

STARLINK-35421是美国SpaceX星链互联网星座中的一员,于2025年10月19日发射升空。它延续了星链星座标准化设计与部署理念,承担低轨卫星互联网服务任务,为全球提供高速宽带接入,尤其覆盖偏远地区与传统网络难以通达区域,进一步扩充星链星座规模,支撑星座全球服务能力提升。

Basic Information
目录编号:
66062
目录名称:
STARLINK-35421
国际标识:
2025-235E
轨道中心:
EARTH
卫星名称:
星链-35421
卫星全名:
星链-35421(STARLINK-35421)
卫星状态:
在轨 (已飞行146 天)
发射日期:
2025-10-19 UTC
国别 :
美国 (US)
星等 :
--
Orbit Information
数据来源 国际轨道数据 AOE轨道数据
星历时间 2026-03-13T18:34:24+0800
22小时前
查看轨道信息
2026-03-13T09:00:00+0800
1天前
查看轨道信息
半长轴 6853.345km 6853.097km
偏心率 0.0000941 0.0001285
轨道倾角 53.158° 53.155°
近地点辐角 115.040° 75.912°
升交点赤经 227.996° 229.851°
平近点角 245.070° 245.705°
近地点 474.563km 474.079km
远地点 475.853km 475.841km
周期 94.105分钟 94.100分钟
每日圈数 15.302026 15.302857
Detailed Information
固有亮度:
5
最大亮度:
2.5
卫星平台:
Starlink V1.0
覆盖范围:
全球
运营商:
太空探索技术公司
运营商所在国:
美国
制造商(研发单位):
太空探索技术公司
制造商所在国:
美国
使用方式:
暂无
Satellite Introduction
Starlink 计划是 SpaceX 推出的全球卫星互联网项目,通过发射低轨道卫星,为全球尤其是偏远地区提供高速、低延迟的互联网服务。自 2019 年起,Starlink 已部署数千颗卫星,旨在缩小全球数字鸿沟,推动互联网普及。该项目还为军事、航空等行业提供通信支持,带来广泛经济效益。
2D Orbit Map
3D Orbit Map
Orbit Altitude Analysis Chart
Orbit Inclination Analysis Chart
Orbit Comprehensive Analysis Chart
View Comprehensive Chart